Tracking 17884 objects as of 4-December-2016
HD Live streaming from Space Station
objects crossing your sky now

TANSUO 2

Track TANSUO 2 now!
10-day predictions
TANSUO 2 is classified as:


NORAD ID: 28479
Int'l Code: 2004-046A
Perigee: 690.7 km
Apogee: 705.9 km
Inclination: 98.2 °
Period: 98.6 minutes
Semi major axis: 7069 km
RCS: 1.44 m2 (large)
Launch date: November 18, 2004
Source: People's Republic of China (PRC)
Launch site: Xichang Space Center, China (XSC)
Your satellite tracking list
Your tracking list is empty





NASA's NSSDC Master Catalog

Two Line Element Set (TLE):
1 28479U 04046A   16339.08714036  .00000159  00000-0  42309-4 0  9992
2 28479  98.2229 351.8134 0010788  24.0101 336.1601 14.60624117641048
Source of the keplerian elements: AFSPC